This is the latest recevied weather packets stored in our database for station/object WC4PEM. If no packets are shown the sender has not sent any weather packets the latest 1 day(s).
| Time | Temp. | Humidity | Pressure | Rain* | Wind** | Luminosity | Snow |
|---|---|---|---|---|---|---|---|
| 1836274651 | 25.56° C | 83% | 1015.5 hPa | 0 mm | 1.79 m/s, 45° | - | - |
| 1836274501 | 25.56° C | 83% | 1015.4 hPa | 0 mm | 2.24 m/s, 55° | - | - |
| 1836274351 | 25.56° C | 83% | 1015.6 hPa | 0 mm | 1.79 m/s, 43° | - | - |
| 1836274201 | 25.56° C | 83% | 1015.5 hPa | 0 mm | 1.79 m/s, 54° | - | - |
| 1836274051 | 25.56° C | 83% | 1015.6 hPa | 0 mm | 2.24 m/s, 66° | - | - |
| 1778046749 | 20.56° C | 79% | 1015.5 hPa | 0 mm | 0.45 m/s, 108° | - | - |
| 1778046566 | 20.56° C | 79% | 1015.5 hPa | 0 mm | 0.45 m/s, 108° | - | - |
| 1778046266 | 21.11° C | 78% | 1015.6 hPa | 0 mm | 0.45 m/s, 87° | - | - |
| 1778045966 | 21.11° C | 78% | 1015.7 hPa | 0 mm | 0.89 m/s, 93° | - | - |
| 1778045666 | 21.11° C | 78% | 1015.6 hPa | 0 mm | 0.89 m/s, 123° | - | - |
| 1778045366 | 21.11° C | 78% | 1015.6 hPa | 0 mm | 1.34 m/s, 133° | - | - |
| 1778045066 | 21.11° C | 78% | 1015.7 hPa | 0 mm | 0.89 m/s, 110° | - | - |
| 1778044766 | 21.11° C | 78% | 1015.8 hPa | 0 mm | 0.45 m/s, 106° | - | - |
| 1778044466 | 21.11° C | 78% | 1015.9 hPa | 0 mm | 0.45 m/s, 137° | - | - |
| 1778044236 | 21.11° C | 78% | 1015.9 hPa | 0 mm | 0.45 m/s, 88° | - | - |
| 1778044166 | 21.11° C | 78% | 1015.9 hPa | 0 mm | 0.45 m/s, 88° | - | - |
| 1778043866 | 21.11° C | 77% | 1015.9 hPa | 0 mm | 0.89 m/s, 93° | - | - |
| 1778043566 | 21.11° C | 77% | 1015.9 hPa | 0 mm | 0.89 m/s, 110° | - | - |
| 1778043332 | 21.67° C | 77% | 1015.9 hPa | 0 mm | 0.89 m/s, 68° | - | - |
| 1778043266 | 21.11° C | 77% | 1015.9 hPa | 0 mm | 0.89 m/s, 93° | - | - |
| 1778042966 | 21.11° C | 77% | 1015.8 hPa | 0 mm | 0.89 m/s, 103° | - | - |
| 1778042666 | 21.67° C | 77% | 1015.9 hPa | 0 mm | 0.89 m/s, 68° | - | - |
| 1778042366 | 21.67° C | 77% | 1015.9 hPa | 0 mm | 1.34 m/s, 111° | - | - |
| 1778042066 | 21.67° C | 77% | 1015.8 hPa | 0 mm | 1.34 m/s, 107° | - | - |
| 1778041898 | 21.67° C | 77% | 1015.9 hPa | 0 mm | 1.34 m/s, 142° | - | - |
* Rain latest hour (hover to see other rain measurements)
** Current wind speed in m/s (hover to see current wind gust speed)